Home > Weather > Ajax > Past weeks

Flag for Canada Past Weather in Ajax, Ontario, Canada — Yesterday and Last 2 Weeks

Now
68 °F

Sunny.


Feels Like: 68 °F
Forecast: 53 / 77 °F
Wind: 7 mph from North

Location: Toronto Buttonville

Current Time: Jun 29, 2016 at 9:52:56 PM

Latest Report: Jun 29, 2016 at 9:00 PM


Visibility: 15 mi

Pressure: 29.99 "Hg

Humidity: 43%

Dew Point: 45 °F

Location of AjaxLocation

Past Weather in Ajax — Graph

°F

Ajax Temperature Yesterday

Maximum temperature yesterday: 70 °F (at 12:00 AM)
Minimum temperature yesterday: 59 °F (at 11:00 PM)
Average temperature yesterday: 65 °F

High & Low Weather Summary for the Past Weeks

 TemperatureHumidityPressure
High91 °F (Jun 20, 4:00 PM)94% (Jun 27, 1:00 AM)30.27 "Hg (Jun 27, 1:00 AM)
Low50 °F (Jun 15, 4:00 AM)24% (Jun 18, 1:00 PM)29.74 "Hg (Jun 20, 7:00 PM)
Average71 °F51%29.98 "Hg
* Reported Jun 14 8:00 PM — Jun 29 8:00 PM, Ajax, Weather by CustomWeather, © 2016

Note: Actual official high and low records may vary slightly from our data, if they occured in-between our weather recording intervals... More about our weather records

Advertising

Ajax Weather History for the Previous 24 Hours

Scroll right to see more
 ConditionsComfort  
Time TempWeatherWind HumidityBarometerVisibility
8:00 PM
Wed, Jun 29
72 °FPassing clouds.12 mph38%29.98 "Hg15 mi
7:00 PM75 °FPassing clouds.10 mph36%29.98 "Hg15 mi
6:00 PM75 °FPassing clouds.12 mph34%29.98 "Hg15 mi
5:00 PM75 °FPassing clouds.14 mph31%29.97 "Hg15 mi
4:00 PM75 °FPassing clouds.10 mph34%29.98 "Hg15 mi
3:00 PM75 °FPassing clouds.12 mph39%29.98 "Hg15 mi
2:00 PM73 °FPassing clouds.8 mph44%29.98 "Hg15 mi
1:00 PM73 °FPassing clouds.13 mph38%29.99 "Hg15 mi
12:00 PM73 °FScattered clouds.17 mph41%30.00 "Hg15 mi
11:00 AM70 °FScattered clouds.15 mph53%29.98 "Hg15 mi
10:00 AM68 °FScattered clouds.10 mph64%30.00 "Hg15 mi
9:00 AM66 °FPartly sunny.12 mph68%30.01 "Hg15 mi
8:00 AM64 °FPassing clouds.9 mph73%29.98 "Hg15 mi
7:00 AM59 °FPassing clouds.6 mph82%29.97 "Hg15 mi
6:00 AM57 °FPassing clouds.3 mph82%29.96 "Hg15 mi
5:00 AM59 °FPassing clouds.8 mph77%29.96 "Hg15 mi
4:00 AM59 °FPassing clouds.10 mph82%29.96 "Hg15 mi
3:00 AM59 °FPassing clouds.9 mph77%29.96 "Hg15 mi
2:00 AM59 °FPassing clouds.8 mph77%29.96 "Hg15 mi
1:00 AM59 °FPassing clouds.8 mph72%29.96 "Hg15 mi
12:00 AM59 °FPassing clouds.10 mph72%29.97 "Hg15 mi
11:00 PM
Tue, Jun 28
59 °FPassing clouds.9 mph72%29.98 "Hg15 mi
10:00 PM61 °FPartly sunny.10 mph68%29.97 "Hg15 mi
9:00 PM61 °FPartly sunny.9 mph72%29.98 "Hg15 mi
Weather by CustomWeather, © 2016

See weather overviewHow to use our weather pages